Location: Liverpool
(53.4084°N, 2.9916°W)
Time: 08:59:27
(UTC+00:00)

N. Korean satellite - Visible Passes

Search period start: 04 March 2021 00:00
Search period end: 14 March 2021 00:00
Orbit: 451 x 502 km, 97.2° (Epoch: 03 March)

Date Brightness Start Highest point End Pass type
(mag) Time Alt. Az. Time Alt. Az. Time Alt. Az.
04 Mar 9.2 04:57:39 10° NE 05:00:29 22° E 05:03:21 10° SSE visible
05 Mar 9.9 04:31:56 10° ENE 04:33:29 12° E 04:35:03 10° ESE visible
05 Mar 6.5 06:03:42 10° N 06:07:13 70° WNW 06:10:47 10° SSW visible
06 Mar 7.2 05:36:56 10° NNE 05:40:27 59° E 05:44:00 10° S visible
07 Mar 8.6 05:10:23 10° NNE 05:13:34 30° E 05:16:46 10° SSE visible
08 Mar 9.7 04:44:12 10° NE 04:46:35 17° E 04:48:59 10° SE visible
09 Mar 6.7 05:49:49 10° NNE 05:53:24 83° ESE 05:57:01 10° SSW visible
10 Mar 8.0 05:23:07 10° NNE 05:26:33 41° E 05:30:00 10° S visible
11 Mar 9.2 04:56:41 10° NE 04:59:36 22° E 05:02:31 10° SSE visible
12 Mar 9.9 04:30:54 10° ENE 04:32:32 13° E 04:34:10 10° ESE visible
13 Mar 7.3 05:35:53 10° NNE 05:39:26 58° E 05:43:02 10° S visible
